TimeEDT,TemperatureF,Dew PointF,Humidity,Sea Level PressureIn,VisibilityMPH,Wind Direction,Wind SpeedMPH,Gust SpeedMPH,PrecipitationIn,Events,Conditions,WindDirDegrees,DateUTC
1:53 AM,51.1,48.9,92,30.22,10.0,Calm,Calm,-,N/A,,Clear,0,2011-10-10 05:53:00
2:53 AM,51.1,48.9,92,30.21,10.0,Calm,Calm,-,N/A,,Clear,0,2011-10-10 06:53:00
3:53 AM,48.9,46.9,93,30.19,10.0,Calm,Calm,-,N/A,,Clear,0,2011-10-10 07:53:00
4:53 AM,48.0,46.0,93,30.20,10.0,Calm,Calm,-,N/A,,Clear,0,2011-10-10 08:53:00
5:53 AM,48.0,46.9,96,30.20,10.0,Calm,Calm,-,N/A,,Clear,0,2011-10-10 09:53:00
6:53 AM,48.9,46.9,93,30.20,10.0,Calm,Calm,-,N/A,,Clear,0,2011-10-10 10:53:00
7:53 AM,48.9,46.0,90,30.21,10.0,Calm,Calm,-,N/A,,Clear,0,2011-10-10 11:53:00
8:35 AM,51.8,48.2,88,30.22,10.0,Calm,Calm,-,N/A,,Partly Cloudy,0,2011-10-10 12:35:00
9:53 AM,61.0,52.0,72,30.22,10.0,Calm,Calm,-,N/A,,Clear,0,2011-10-10 13:53:00
10:53 AM,66.0,52.0,60,30.22,10.0,SSE,5.8,-,N/A,,Clear,150,2011-10-10 14:53:00
11:53 AM,72.0,53.1,51,30.21,10.0,South,5.8,-,N/A,,Clear,170,2011-10-10 15:53:00
2:53 PM,77.0,52.0,42,30.13,10.0,East,5.8,-,N/A,,Partly Cloudy,90,2011-10-10 18:53:00
3:53 PM,78.1,51.1,39,30.11,10.0,East,3.5,-,N/A,,Clear,90,2011-10-10 19:53:00
4:53 PM,78.1,52.0,40,30.09,10.0,SE,4.6,-,N/A,,Clear,130,2011-10-10 20:53:00
6:53 PM,73.9,54.0,50,30.07,10.0,Calm,Calm,-,N/A,,Clear,0,2011-10-10 22:53:00
7:53 PM,62.1,54.0,75,30.08,10.0,Calm,Calm,-,N/A,,Clear,0,2011-10-10 23:53:00
8:53 PM,55.9,52.0,87,30.08,10.0,Calm,Calm,-,N/A,,Clear,0,2011-10-11 00:53:00
9:53 PM,54.0,52.0,93,30.08,10.0,Calm,Calm,-,N/A,,Clear,0,2011-10-11 01:53:00
10:53 PM,53.1,51.1,93,30.07,10.0,Calm,Calm,-,N/A,,Clear,0,2011-10-11 02:53:00
11:53 PM,53.1,51.1,93,30.06,10.0,Calm,Calm,-,N/A,,Clear,0,2011-10-11 03:53:00